Time,TemperatureF,DewpointF,PressureIn,WindDirection,WindDirectionDegrees,WindSpeedMPH,WindSpeedGustMPH,Humidity,HourlyPrecipIn,Conditions,Clouds,dailyrainin,SoftwareType,DateUTC
2013-05-17 00:00:00,63.2,61.2,29.97,SSW,193,0.0,6.0,93,0.00,,CLR,0.05,VWS V14.01,2013-05-17 04:00:00,
2013-05-17 00:01:00,63.2,61.2,29.97,SSW,199,0.0,6.0,93,0.00,,,0.00,VWS V14.01,2013-05-17 04:01:00,
2013-05-17 00:06:00,63.2,61.2,29.97,SSW,203,3.0,8.0,93,0.00,,,0.00,VWS V14.01,2013-05-17 04:06:00,
2013-05-17 00:11:00,63.2,61.2,29.97,SSW,209,0.0,8.0,93,0.00,,,0.00,VWS V14.01,2013-05-17 04:11:00,
2013-05-17 00:15:00,63.2,61.2,29.98,SSW,209,0.0,6.0,93,0.00,,CLR,0.00,VWS V14.01,2013-05-17 04:15:00,
2013-05-17 00:16:00,63.2,61.5,29.98,SW,223,0.0,6.0,94,0.00,,,0.00,VWS V14.01,2013-05-17 04:16:00,
2013-05-17 00:21:00,63.4,61.7,29.98,SSW,202,0.0,6.0,94,0.00,,,0.00,VWS V14.01,2013-05-17 04:21:00,
2013-05-17 00:26:00,63.5,61.8,29.98,SW,227,0.0,5.0,94,0.00,,,0.00,VWS V14.01,2013-05-17 04:26:00,
2013-05-17 00:30:00,63.7,61.9,29.98,WSW,254,0.0,6.0,94,0.00,,CLR,0.00,VWS V14.01,2013-05-17 04:30:00,
2013-05-17 00:31:00,63.7,62.0,29.98,SW,215,0.0,6.0,94,0.00,,,0.00,VWS V14.01,2013-05-17 04:31:00,
2013-05-17 00:36:00,63.7,62.0,29.98,WSW,237,0.0,6.0,94,0.00,,,0.00,VWS V14.01,2013-05-17 04:36:00,
2013-05-17 00:41:00,63.7,62.0,29.98,WSW,241,0.0,6.0,94,0.00,,,0.00,VWS V14.01,2013-05-17 04:41:00,
2013-05-17 00:45:00,63.9,62.1,29.99,SW,229,5.0,5.0,94,0.00,,CLR,0.00,VWS V14.01,2013-05-17 04:45:00,
2013-05-17 00:46:00,63.9,62.1,29.99,WSW,256,0.0,5.0,94,0.00,,,0.00,VWS V14.01,2013-05-17 04:46:00,
2013-05-17 00:51:00,63.7,62.0,29.99,WSW,253,0.0,5.0,94,0.00,,,0.00,VWS V14.01,2013-05-17 04:51:00,
2013-05-17 00:56:00,63.7,62.0,29.99,West,267,0.0,5.0,94,0.00,,,0.00,VWS V14.01,2013-05-17 04:56:00,
2013-05-17 01:00:00,63.5,61.8,29.99,West,264,0.0,3.0,94,0.00,,CLR,0.00,VWS V14.01,2013-05-17 05:00:00,
2013-05-17 01:01:00,63.5,61.8,29.99,West,264,0.0,0.0,94,0.00,,,0.00,VWS V14.01,2013-05-17 05:01:00,
2013-05-17 01:06:00,63.4,61.7,29.99,West,264,0.0,0.0,94,0.00,,,0.00,VWS V14.01,2013-05-17 05:06:00,
2013-05-17 01:11:00,63.2,61.5,29.99,West,264,0.0,0.0,94,0.00,,,0.00,VWS V14.01,2013-05-17 05:11:00,
2013-05-17 01:15:00,63.2,61.5,29.99,West,264,0.0,0.0,94,0.00,,CLR,0.00,VWS V14.01,2013-05-17 05:15:00,
2013-05-17 01:16:00,63.1,61.3,29.99,West,264,0.0,0.0,94,0.00,,,0.00,VWS V14.01,2013-05-17 05:16:00,
2013-05-17 01:21:00,62.9,60.8,29.99,West,264,0.0,0.0,93,0.00,,,0.00,VWS V14.01,2013-05-17 05:21:00,
2013-05-17 01:26:00,62.6,60.5,29.99,West,264,0.0,0.0,93,0.00,,,0.00,VWS V14.01,2013-05-17 05:26:00,
2013-05-17 01:30:00,62.3,60.3,29.99,West,264,0.0,0.0,93,0.00,,CLR,0.00,VWS V14.01,2013-05-17 05:30:00,
2013-05-17 01:31:00,62.3,60.2,29.99,West,264,0.0,0.0,93,0.00,,,0.00,VWS V14.01,2013-05-17 05:31:00,
2013-05-17 01:36:00,62.0,60.0,29.99,West,264,0.0,0.0,93,0.00,,,0.00,VWS V14.01,2013-05-17 05:36:00,
2013-05-17 01:41:00,61.8,59.8,29.99,West,264,0.0,0.0,93,0.00,,,0.00,VWS V14.01,2013-05-17 05:41:00,
2013-05-17 01:45:00,61.6,59.6,29.99,West,264,0.0,0.0,93,0.00,,CLR,0.00,VWS V14.01,2013-05-17 05:45:00,
2013-05-17 01:46:00,61.5,59.5,29.99,West,264,0.0,0.0,93,0.00,,,0.00,VWS V14.01,2013-05-17 05:46:00,
2013-05-17 01:51:00,61.2,59.2,29.99,West,264,0.0,0.0,93,0.00,,,0.00,VWS V14.01,2013-05-17 05:51:00,
2013-05-17 01:56:00,60.9,58.9,29.99,West,264,0.0,0.0,93,0.00,,,0.00,VWS V14.01,2013-05-17 05:56:00,
2013-05-17 02:00:00,60.7,58.7,29.99,West,264,0.0,0.0,93,0.00,,CLR,0.00,VWS V14.01,2013-05-17 06:00:00,
2013-05-17 02:01:00,60.7,58.7,29.99,West,264,0.0,0.0,93,0.00,,,0.00,VWS V14.01,2013-05-17 06:01:00,
2013-05-17 02:06:00,60.4,58.4,29.99,West,264,0.0,0.0,93,0.00,,,0.00,VWS V14.01,2013-05-17 06:06:00,
2013-05-17 02:11:00,60.2,58.2,29.99,West,264,0.0,0.0,93,0.00,,,0.00,VWS V14.01,2013-05-17 06:11:00,
2013-05-17 02:15:00,60.1,58.1,29.99,West,264,0.0,0.0,93,0.00,,CLR,0.00,VWS V14.01,2013-05-17 06:15:00,
2013-05-17 02:16:00,60.1,58.1,29.99,West,264,0.0,0.0,93,0.00,,,0.00,VWS V14.01,2013-05-17 06:16:00,
2013-05-17 02:21:00,59.9,58.2,29.99,West,264,0.0,0.0,94,0.00,,,0.00,VWS V14.01,2013-05-17 06:21:00,
2013-05-17 02:26:00,59.9,58.2,29.99,West,264,0.0,0.0,94,0.00,,,0.00,VWS V14.01,2013-05-17 06:26:00,
2013-05-17 02:30:00,59.9,58.2,29.99,West,264,0.0,0.0,94,0.00,,CLR,0.00,VWS V14.01,2013-05-17 06:30:00,
2013-05-17 02:31:00,59.9,58.2,29.99,West,264,0.0,0.0,94,0.00,,,0.00,VWS V14.01,2013-05-17 06:31:00,
2013-05-17 02:36:00,60.1,58.4,29.99,West,264,0.0,0.0,94,0.00,,,0.00,VWS V14.01,2013-05-17 06:36:00,
2013-05-17 02:41:00,60.1,58.4,29.99,West,264,0.0,0.0,94,0.00,,,0.00,VWS V14.01,2013-05-17 06:41:00,
2013-05-17 02:45:00,60.2,58.8,29.98,West,264,0.0,0.0,95,0.00,,CLR,0.00,VWS V14.01,2013-05-17 06:45:00,
2013-05-17 02:46:00,60.2,58.8,29.98,West,264,0.0,0.0,95,0.00,,,0.00,VWS V14.01,2013-05-17 06:46:00,
2013-05-17 02:51:00,60.2,58.8,29.98,West,264,0.0,0.0,95,0.00,,,0.00,VWS V14.01,2013-05-17 06:51:00,
2013-05-17 02:56:00,60.4,59.0,29.98,West,264,0.0,0.0,95,0.00,,,0.00,VWS V14.01,2013-05-17 06:56:00,
2013-05-17 03:00:00,60.4,59.0,29.98,West,264,0.0,0.0,95,0.00,,CLR,0.00,VWS V14.01,2013-05-17 07:00:00,
2013-05-17 03:01:00,60.4,59.0,29.98,West,264,0.0,0.0,95,0.00,,,0.00,VWS V14.01,2013-05-17 07:01:00,
2013-05-17 03:06:00,60.5,59.1,29.98,West,264,0.0,0.0,95,0.00,,,0.00,VWS V14.01,2013-05-17 07:06:00,
2013-05-17 03:11:00,60.5,59.4,29.98,West,264,0.0,0.0,96,0.00,,,0.00,VWS V14.01,2013-05-17 07:11:00,
2013-05-17 03:15:00,60.5,59.4,29.98,West,264,0.0,0.0,96,0.00,,CLR,0.00,VWS V14.01,2013-05-17 07:15:00,
2013-05-17 03:16:00,60.5,59.4,29.98,West,264,0.0,0.0,96,0.00,,,0.00,VWS V14.01,2013-05-17 07:16:00,
2013-05-17 03:21:00,60.5,59.9,29.98,West,264,0.0,0.0,98,0.00,,,0.00,VWS V14.01,2013-05-17 07:21:00,
2013-05-17 03:26:00,60.5,59.9,29.98,West,264,0.0,0.0,98,0.00,,,0.00,VWS V14.01,2013-05-17 07:26:00,
2013-05-17 03:30:00,60.5,59.9,29.99,West,264,0.0,0.0,98,0.00,,CLR,0.00,VWS V14.01,2013-05-17 07:30:00,
2013-05-17 03:31:00,60.7,60.4,29.99,West,264,0.0,0.0,99,0.00,,,0.00,VWS V14.01,2013-05-17 07:31:00,
2013-05-17 03:36:00,60.7,60.7,29.99,West,264,0.0,0.0,100,0.00,,,0.00,VWS V14.01,2013-05-17 07:36:00,
2013-05-17 03:41:00,60.7,60.7,29.99,West,264,0.0,0.0,100,0.00,,,0.00,VWS V14.01,2013-05-17 07:41:00,
2013-05-17 03:45:00,60.7,60.7,29.99,West,264,0.0,0.0,100,0.00,,CLR,0.00,VWS V14.01,2013-05-17 07:45:00,
2013-05-17 03:46:00,60.7,60.7,29.99,West,264,0.0,0.0,100,0.00,,,0.00,VWS V14.01,2013-05-17 07:46:00,
2013-05-17 03:51:00,60.7,60.7,29.99,West,264,0.0,0.0,100,0.00,,,0.00,VWS V14.01,2013-05-17 07:51:00,
2013-05-17 03:56:00,60.7,60.7,29.99,West,264,0.0,0.0,100,0.00,,,0.00,VWS V14.01,2013-05-17 07:56:00,
2013-05-17 04:00:00,60.7,60.7,29.99,West,264,0.0,0.0,100,0.00,,CLR,0.00,VWS V14.01,2013-05-17 08:00:00,
2013-05-17 04:01:00,60.7,60.7,29.99,West,264,0.0,0.0,100,0.00,,,0.00,VWS V14.01,2013-05-17 08:01:00,
2013-05-17 04:06:00,60.7,60.7,29.99,West,264,0.0,0.0,100,0.00,,,0.00,VWS V14.01,2013-05-17 08:06:00,
2013-05-17 04:11:00,60.7,60.7,29.99,West,264,0.0,0.0,100,0.00,,,0.00,VWS V14.01,2013-05-17 08:11:00,
2013-05-17 04:15:00,60.5,60.5,29.98,West,264,0.0,0.0,100,0.00,,CLR,0.00,VWS V14.01,2013-05-17 08:15:00,
2013-05-17 04:16:00,60.5,60.5,29.98,West,264,0.0,0.0,100,0.00,,,0.00,VWS V14.01,2013-05-17 08:16:00,
2013-05-17 04:21:00,60.5,60.5,29.98,West,264,0.0,0.0,100,0.00,,,0.00,VWS V14.01,2013-05-17 08:21:00,
2013-05-17 04:26:00,60.5,60.5,29.98,West,264,0.0,0.0,100,0.00,,,0.00,VWS V14.01,2013-05-17 08:26:00,
2013-05-17 04:30:00,60.4,60.4,29.99,West,264,0.0,0.0,100,0.00,,CLR,0.00,VWS V14.01,2013-05-17 08:30:00,
2013-05-17 04:31:00,60.4,60.4,29.99,West,264,0.0,0.0,100,0.00,,,0.00,VWS V14.01,2013-05-17 08:31:00,
2013-05-17 04:36:00,60.4,60.4,29.99,West,264,0.0,0.0,100,0.00,,,0.00,VWS V14.01,2013-05-17 08:36:00,
2013-05-17 04:41:00,60.4,60.4,29.99,West,264,0.0,0.0,100,0.00,,,0.00,VWS V14.01,2013-05-17 08:41:00,
2013-05-17 04:45:00,60.5,60.5,30.00,West,264,0.0,0.0,100,0.01,,CLR,0.01,VWS V14.01,2013-05-17 08:45:00,
2013-05-17 04:46:00,60.5,60.5,30.00,West,264,0.0,0.0,100,0.01,,,0.01,VWS V14.01,2013-05-17 08:46:00,
2013-05-17 04:51:00,60.5,60.5,30.00,West,264,0.0,0.0,100,0.01,,,0.01,VWS V14.01,2013-05-17 08:51:00,
2013-05-17 04:56:00,60.5,60.5,30.00,West,264,0.0,0.0,100,0.01,,,0.01,VWS V14.01,2013-05-17 08:56:00,
2013-05-17 05:00:00,60.5,60.5,30.00,West,264,0.0,0.0,100,0.01,,CLR,0.01,VWS V14.01,2013-05-17 09:00:00,
2013-05-17 05:01:00,60.5,60.5,30.00,West,264,0.0,0.0,100,0.01,,,0.01,VWS V14.01,2013-05-17 09:01:00,
2013-05-17 05:06:00,60.5,60.5,30.00,West,264,0.0,0.0,100,0.01,,,0.01,VWS V14.01,2013-05-17 09:06:00,
2013-05-17 05:11:00,60.5,60.5,30.00,West,264,0.0,0.0,100,0.01,,,0.01,VWS V14.01,2013-05-17 09:11:00,
2013-05-17 05:15:00,60.5,60.5,30.00,West,264,0.0,0.0,100,0.01,,CLR,0.01,VWS V14.01,2013-05-17 09:15:00,
2013-05-17 05:16:00,60.7,60.7,30.00,West,264,0.0,0.0,100,0.01,,,0.01,VWS V14.01,2013-05-17 09:16:00,
2013-05-17 05:21:00,60.7,60.7,30.00,West,264,0.0,0.0,100,0.01,,,0.01,VWS V14.01,2013-05-17 09:21:00,
2013-05-17 05:26:00,60.7,60.7,30.00,West,264,0.0,0.0,100,0.01,,,0.01,VWS V14.01,2013-05-17 09:26:00,
2013-05-17 05:30:00,60.9,60.9,30.00,West,264,0.0,0.0,100,0.01,,CLR,0.01,VWS V14.01,2013-05-17 09:30:00,
2013-05-17 05:31:00,60.9,60.9,30.00,West,264,0.0,0.0,100,0.01,,,0.01,VWS V14.01,2013-05-17 09:31:00,
2013-05-17 05:36:00,60.9,60.9,30.00,West,264,0.0,0.0,100,0.01,,,0.01,VWS V14.01,2013-05-17 09:36:00,
2013-05-17 05:41:00,61.0,61.0,30.00,West,264,0.0,0.0,100,0.01,,,0.01,VWS V14.01,2013-05-17 09:41:00,
2013-05-17 05:45:00,61.2,61.2,30.01,West,264,0.0,0.0,100,0.01,,CLR,0.01,VWS V14.01,2013-05-17 09:45:00,
2013-05-17 05:46:00,61.2,61.2,30.01,West,264,0.0,0.0,100,0.00,,,0.01,VWS V14.01,2013-05-17 09:46:00,
2013-05-17 05:51:00,61.2,61.2,30.01,West,264,0.0,0.0,100,0.00,,,0.01,VWS V14.01,2013-05-17 09:51:00,
2013-05-17 05:56:00,61.2,61.2,30.01,West,264,0.0,0.0,100,0.00,,,0.01,VWS V14.01,2013-05-17 09:56:00,
2013-05-17 06:00:00,61.2,61.2,30.01,West,264,0.0,0.0,100,0.00,,CLR,0.01,VWS V14.01,2013-05-17 10:00:00,
2013-05-17 06:01:00,61.2,61.2,30.01,West,264,0.0,0.0,100,0.00,,,0.01,VWS V14.01,2013-05-17 10:01:00,
2013-05-17 06:06:00,61.2,61.2,30.01,West,264,0.0,0.0,100,0.00,,,0.01,VWS V14.01,2013-05-17 10:06:00,
2013-05-17 06:11:00,61.0,61.0,30.01,West,264,0.0,0.0,100,0.00,,,0.01,VWS V14.01,2013-05-17 10:11:00,
2013-05-17 06:15:00,61.0,61.0,30.03,West,264,0.0,0.0,100,0.00,,CLR,0.01,VWS V14.01,2013-05-17 10:15:00,
2013-05-17 06:16:00,61.0,61.0,30.03,West,264,0.0,0.0,100,0.00,,,0.01,VWS V14.01,2013-05-17 10:16:00,
2013-05-17 06:21:00,61.0,61.0,30.03,West,264,0.0,0.0,100,0.00,,,0.01,VWS V14.01,2013-05-17 10:21:00,
2013-05-17 06:26:00,61.0,61.0,30.03,West,264,0.0,0.0,100,0.00,,,0.01,VWS V14.01,2013-05-17 10:26:00,
2013-05-17 06:30:00,61.0,61.0,30.03,West,264,0.0,0.0,100,0.00,,CLR,0.01,VWS V14.01,2013-05-17 10:30:00,
2013-05-17 06:31:00,61.0,61.0,30.03,West,264,0.0,0.0,100,0.00,,,0.01,VWS V14.01,2013-05-17 10:31:00,
2013-05-17 06:36:00,61.2,61.2,30.03,West,264,0.0,0.0,100,0.00,,,0.01,VWS V14.01,2013-05-17 10:36:00,
2013-05-17 06:41:00,61.2,61.2,30.03,West,264,0.0,0.0,100,0.00,,,0.01,VWS V14.01,2013-05-17 10:41:00,
2013-05-17 06:45:00,61.2,61.2,30.04,West,264,0.0,0.0,100,0.00,,CLR,0.01,VWS V14.01,2013-05-17 10:45:00,
2013-05-17 06:46:00,61.2,61.2,30.04,West,264,0.0,0.0,100,0.00,,,0.01,VWS V14.01,2013-05-17 10:46:00,
2013-05-17 06:51:00,61.2,61.2,30.04,West,264,0.0,0.0,100,0.00,,,0.01,VWS V14.01,2013-05-17 10:51:00,
2013-05-17 06:56:00,61.2,61.2,30.04,West,264,0.0,0.0,100,0.00,,,0.01,VWS V14.01,2013-05-17 10:56:00,
2013-05-17 07:00:00,61.2,61.2,30.04,West,264,0.0,0.0,100,0.00,,CLR,0.01,VWS V14.01,2013-05-17 11:00:00,
2013-05-17 07:01:00,61.2,61.2,30.04,West,264,0.0,0.0,100,0.00,,,0.01,VWS V14.01,2013-05-17 11:01:00,
2013-05-17 07:07:00,61.2,61.2,30.04,West,264,0.0,0.0,100,0.00,,,0.01,VWS V14.01,2013-05-17 11:07:00,
2013-05-17 07:12:00,61.2,61.2,30.04,West,264,0.0,0.0,100,0.00,,,0.01,VWS V14.01,2013-05-17 11:12:00,
2013-05-17 07:15:00,61.2,61.2,30.05,West,264,0.0,0.0,100,0.00,,CLR,0.01,VWS V14.01,2013-05-17 11:15:00,
2013-05-17 07:17:00,61.3,61.3,30.05,West,264,0.0,0.0,100,0.00,,,0.01,VWS V14.01,2013-05-17 11:17:00,
2013-05-17 07:22:00,61.3,61.3,30.05,West,264,0.0,0.0,100,0.00,,,0.01,VWS V14.01,2013-05-17 11:22:00,
2013-05-17 07:27:00,61.3,61.3,30.05,West,264,0.0,0.0,100,0.00,,,0.01,VWS V14.01,2013-05-17 11:27:00,
2013-05-17 07:30:00,61.5,61.5,30.06,West,264,0.0,0.0,100,0.00,,CLR,0.01,VWS V14.01,2013-05-17 11:30:00,
2013-05-17 07:32:00,61.5,61.5,30.06,West,264,0.0,0.0,100,0.00,,,0.01,VWS V14.01,2013-05-17 11:32:00,
2013-05-17 07:37:00,61.6,61.6,30.06,West,264,0.0,0.0,100,0.00,,,0.01,VWS V14.01,2013-05-17 11:37:00,
2013-05-17 07:42:00,61.6,61.6,30.06,West,264,0.0,0.0,100,0.00,,,0.01,VWS V14.01,2013-05-17 11:42:00,
2013-05-17 07:45:00,61.6,61.6,30.06,West,264,0.0,0.0,100,0.00,,CLR,0.01,VWS V14.01,2013-05-17 11:45:00,
2013-05-17 07:47:00,61.8,61.8,30.06,West,264,0.0,0.0,100,0.00,,,0.01,VWS V14.01,2013-05-17 11:47:00,
2013-05-17 07:52:00,61.8,61.8,30.06,West,264,0.0,0.0,100,0.00,,,0.01,VWS V14.01,2013-05-17 11:52:00,
2013-05-17 07:57:00,62.0,62.0,30.06,West,264,0.0,0.0,100,0.00,,,0.01,VWS V14.01,2013-05-17 11:57:00,
2013-05-17 08:00:00,62.0,62.0,30.07,West,264,0.0,0.0,100,0.00,,CLR,0.01,VWS V14.01,2013-05-17 12:00:00,
2013-05-17 08:02:00,62.0,62.0,30.07,West,264,0.0,0.0,100,0.00,,,0.01,VWS V14.01,2013-05-17 12:02:00,
2013-05-17 08:07:00,62.0,62.0,30.07,West,264,0.0,0.0,100,0.00,,,0.01,VWS V14.01,2013-05-17 12:07:00,
2013-05-17 08:12:00,62.0,62.0,30.07,West,264,0.0,0.0,100,0.00,,,0.01,VWS V14.01,2013-05-17 12:12:00,
2013-05-17 08:15:00,62.1,62.1,30.07,West,264,0.0,0.0,100,0.00,,CLR,0.01,VWS V14.01,2013-05-17 12:15:00,
2013-05-17 08:17:00,62.1,62.1,30.07,West,264,0.0,0.0,100,0.00,,,0.01,VWS V14.01,2013-05-17 12:17:00,
2013-05-17 08:22:00,62.1,62.1,30.07,West,264,0.0,0.0,100,0.00,,,0.01,VWS V14.01,2013-05-17 12:22:00,
2013-05-17 08:27:00,62.4,62.4,30.07,West,264,0.0,0.0,100,0.00,,,0.01,VWS V14.01,2013-05-17 12:27:00,
2013-05-17 08:30:00,62.4,62.4,30.07,West,264,0.0,0.0,100,0.00,,CLR,0.01,VWS V14.01,2013-05-17 12:30:00,
2013-05-17 08:32:00,62.4,62.4,30.07,West,264,0.0,0.0,100,0.00,,,0.01,VWS V14.01,2013-05-17 12:32:00,
2013-05-17 08:37:00,62.6,62.6,30.07,West,264,0.0,0.0,100,0.00,,,0.01,VWS V14.01,2013-05-17 12:37:00,
2013-05-17 08:42:00,62.6,62.6,30.07,WSW,258,0.0,1.0,100,0.00,,,0.01,VWS V14.01,2013-05-17 12:42:00,
2013-05-17 08:45:00,62.7,62.7,30.07,WSW,258,0.0,1.0,100,0.00,,CLR,0.01,VWS V14.01,2013-05-17 12:45:00,
2013-05-17 08:47:00,62.7,62.7,30.07,WSW,258,0.0,1.0,100,0.00,,,0.01,VWS V14.01,2013-05-17 12:47:00,
2013-05-17 08:52:00,62.7,62.7,30.07,WSW,258,0.0,0.0,100,0.00,,,0.01,VWS V14.01,2013-05-17 12:52:00,
2013-05-17 08:57:00,62.9,62.9,30.07,WSW,258,0.0,0.0,100,0.00,,,0.01,VWS V14.01,2013-05-17 12:57:00,
2013-05-17 09:00:00,62.9,62.9,30.07,WSW,258,0.0,0.0,100,0.00,,CLR,0.01,VWS V14.01,2013-05-17 13:00:00,
2013-05-17 09:02:00,62.9,62.9,30.07,WSW,258,0.0,0.0,100,0.00,,,0.01,VWS V14.01,2013-05-17 13:02:00,
2013-05-17 09:07:00,63.2,63.2,30.07,WSW,258,0.0,0.0,100,0.00,,,0.01,VWS V14.01,2013-05-17 13:07:00,
2013-05-17 09:12:00,63.2,63.2,30.07,SW,217,0.0,1.0,100,0.00,,,0.01,VWS V14.01,2013-05-17 13:12:00,
2013-05-17 09:15:00,63.2,63.2,30.08,SW,217,0.0,1.0,100,0.00,,CLR,0.01,VWS V14.01,2013-05-17 13:15:00,
2013-05-17 09:17:00,63.1,63.1,30.08,SW,217,0.0,1.0,100,0.00,,,0.01,VWS V14.01,2013-05-17 13:17:00,
2013-05-17 09:22:00,62.9,62.9,30.08,SW,217,0.0,1.0,100,0.00,,,0.01,VWS V14.01,2013-05-17 13:22:00,
2013-05-17 09:27:00,63.1,63.1,30.08,SW,217,0.0,1.0,100,0.00,,,0.01,VWS V14.01,2013-05-17 13:27:00,
2013-05-17 09:30:00,63.2,63.2,30.08,SW,217,0.0,0.0,100,0.00,,CLR,0.01,VWS V14.01,2013-05-17 13:30:00,
2013-05-17 09:32:00,63.2,63.2,30.08,South,178,0.0,0.0,100,0.00,,,0.01,VWS V14.01,2013-05-17 13:32:00,
2013-05-17 09:37:00,63.2,63.2,30.08,South,178,0.0,0.0,100,0.00,,,0.01,VWS V14.01,2013-05-17 13:37:00,
2013-05-17 09:42:00,63.4,63.4,30.08,SSE,165,0.0,0.0,100,0.00,,,0.01,VWS V14.01,2013-05-17 13:42:00,
2013-05-17 09:45:00,63.4,63.4,30.08,SSE,165,0.0,0.0,100,0.00,,CLR,0.01,VWS V14.01,2013-05-17 13:45:00,
2013-05-17 09:47:00,63.4,63.1,30.08,SSE,165,0.0,0.0,99,0.00,,,0.01,VWS V14.01,2013-05-17 13:47:00,
2013-05-17 09:52:00,63.2,62.9,30.08,SSE,165,0.0,0.0,99,0.00,,,0.01,VWS V14.01,2013-05-17 13:52:00,
2013-05-17 09:57:00,63.4,62.8,30.08,SSE,165,0.0,0.0,98,0.00,,,0.01,VWS V14.01,2013-05-17 13:57:00,
2013-05-17 10:00:00,63.4,62.8,30.08,SSE,154,0.0,0.0,98,0.00,,CLR,0.01,VWS V14.01,2013-05-17 14:00:00,
2013-05-17 10:02:00,63.4,62.8,30.08,SSE,154,0.0,0.0,98,0.00,,,0.01,VWS V14.01,2013-05-17 14:02:00,
2013-05-17 10:07:00,63.5,62.3,30.08,South,176,0.0,1.0,96,0.00,,,0.01,VWS V14.01,2013-05-17 14:07:00,
2013-05-17 10:12:00,63.7,62.5,30.08,ENE,66,0.0,2.0,96,0.00,,,0.01,VWS V14.01,2013-05-17 14:12:00,
2013-05-17 10:15:00,63.9,62.4,30.08,South,182,0.0,2.0,95,0.00,,CLR,0.01,VWS V14.01,2013-05-17 14:15:00,
2013-05-17 10:17:00,64.2,62.7,30.08,South,178,0.0,3.0,95,0.00,,,0.01,VWS V14.01,2013-05-17 14:17:00,
2013-05-17 10:22:00,64.3,62.8,30.08,SSE,158,0.0,3.0,95,0.00,,,0.01,VWS V14.01,2013-05-17 14:22:00,
2013-05-17 10:27:00,64.3,62.2,30.08,SSE,155,0.0,0.0,93,0.00,,,0.01,VWS V14.01,2013-05-17 14:27:00,
2013-05-17 10:30:00,64.5,62.4,30.08,SSE,161,0.0,1.0,93,0.00,,CLR,0.01,VWS V14.01,2013-05-17 14:30:00,
2013-05-17 10:32:00,64.5,62.4,30.08,SSE,161,0.0,1.0,93,0.00,,,0.01,VWS V14.01,2013-05-17 14:32:00,
2013-05-17 10:37:00,64.7,62.3,30.08,South,188,0.0,0.0,92,0.00,,,0.01,VWS V14.01,2013-05-17 14:37:00,
2013-05-17 10:42:00,65.0,62.6,30.08,SSE,157,0.0,2.0,92,0.00,,,0.01,VWS V14.01,2013-05-17 14:42:00,
2013-05-17 10:45:00,64.8,61.8,30.09,SSE,157,0.0,2.0,90,0.00,,CLR,0.01,VWS V14.01,2013-05-17 14:45:00,
2013-05-17 10:47:00,65.0,62.0,30.09,SSE,158,0.0,0.0,90,0.00,,,0.01,VWS V14.01,2013-05-17 14:47:00,
2013-05-17 10:52:00,65.2,62.2,30.09,South,181,0.0,6.0,90,0.00,,,0.01,VWS V14.01,2013-05-17 14:52:00,
2013-05-17 10:57:00,65.5,62.2,30.09,SSW,195,0.0,6.0,89,0.00,,,0.01,VWS V14.01,2013-05-17 14:57:00,
2013-05-17 11:00:00,65.6,62.0,30.09,South,186,0.0,2.0,88,0.00,,CLR,0.01,VWS V14.01,2013-05-17 15:00:00,
2013-05-17 11:02:00,65.5,61.5,30.09,South,186,0.0,1.0,87,0.00,,,0.01,VWS V14.01,2013-05-17 15:02:00,
2013-05-17 11:07:00,65.6,61.6,30.09,South,181,0.0,1.0,87,0.00,,,0.01,VWS V14.01,2013-05-17 15:07:00,
2013-05-17 11:12:00,65.8,61.8,30.09,South,181,0.0,0.0,87,0.00,,,0.01,VWS V14.01,2013-05-17 15:12:00,
2013-05-17 11:15:00,66.0,62.0,30.09,South,181,0.0,0.0,87,0.00,,CLR,0.01,VWS V14.01,2013-05-17 15:15:00,
2013-05-17 11:17:00,66.0,62.0,30.09,South,181,0.0,0.0,87,0.00,,,0.01,VWS V14.01,2013-05-17 15:17:00,
2013-05-17 11:22:00,66.1,61.8,30.09,East,99,0.0,0.0,86,0.00,,,0.01,VWS V14.01,2013-05-17 15:22:00,
2013-05-17 11:27:00,66.3,62.0,30.09,East,96,0.0,0.0,86,0.00,,,0.01,VWS V14.01,2013-05-17 15:27:00,
2013-05-17 11:30:00,66.3,61.7,30.09,East,97,0.0,1.0,85,0.00,,CLR,0.01,VWS V14.01,2013-05-17 15:30:00,
2013-05-17 11:32:00,66.4,61.8,30.09,East,95,0.0,1.0,85,0.00,,,0.01,VWS V14.01,2013-05-17 15:32:00,
2013-05-17 11:37:00,66.9,62.2,30.09,SSW,192,0.0,2.0,85,0.00,,,0.01,VWS V14.01,2013-05-17 15:37:00,
2013-05-17 11:42:00,67.3,62.3,30.09,SSW,192,0.0,2.0,84,0.00,,,0.01,VWS V14.01,2013-05-17 15:42:00,
2013-05-17 11:45:00,67.3,62.3,30.09,ESE,123,0.0,1.0,84,0.00,,CLR,0.01,VWS V14.01,2013-05-17 15:45:00,
2013-05-17 11:47:00,67.3,62.0,30.09,ESE,123,0.0,0.0,83,0.00,,,0.01,VWS V14.01,2013-05-17 15:47:00,
2013-05-17 11:52:00,67.4,62.1,30.09,SSE,162,0.0,1.0,83,0.00,,,0.01,VWS V14.01,2013-05-17 15:52:00,
2013-05-17 11:57:00,67.9,62.2,30.09,SSE,162,0.0,1.0,82,0.00,,,0.01,VWS V14.01,2013-05-17 15:57:00,
2013-05-17 12:00:00,68.1,61.7,30.09,SSE,162,0.0,0.0,80,0.00,,CLR,0.01,VWS V14.01,2013-05-17 16:00:00,
2013-05-17 12:02:00,68.4,62.7,30.09,ENE,61,0.0,0.0,82,0.00,,,0.01,VWS V14.01,2013-05-17 16:02:00,
2013-05-17 12:07:00,68.9,62.1,30.09,East,79,0.0,3.0,79,0.00,,,0.01,VWS V14.01,2013-05-17 16:07:00,
2013-05-17 12:12:00,69.8,63.7,30.09,ENE,64,0.0,3.0,81,0.00,,,0.01,VWS V14.01,2013-05-17 16:12:00,
2013-05-17 12:15:00,70.1,62.9,30.09,ENE,64,0.0,1.0,78,0.00,,CLR,0.01,VWS V14.01,2013-05-17 16:15:00,
2013-05-17 12:17:00,70.1,62.2,30.09,ENE,64,0.0,1.0,76,0.00,,,0.01,VWS V14.01,2013-05-17 16:17:00,
2013-05-17 12:22:00,70.3,62.4,30.09,ENE,64,0.0,1.0,76,0.00,,,0.01,VWS V14.01,2013-05-17 16:22:00,
2013-05-17 12:27:00,70.9,63.3,30.09,ENE,75,0.0,1.0,77,0.00,,,0.01,VWS V14.01,2013-05-17 16:27:00,
2013-05-17 12:30:00,71.3,63.0,30.08,ENE,59,0.0,2.0,75,0.00,,CLR,0.01,VWS V14.01,2013-05-17 16:30:00,
2013-05-17 12:32:00,71.5,63.2,30.08,ENE,59,0.0,2.0,75,0.00,,,0.01,VWS V14.01,2013-05-17 16:32:00,
2013-05-17 12:37:00,71.8,63.1,30.08,SSE,160,0.0,1.0,74,0.00,,,0.01,VWS V14.01,2013-05-17 16:37:00,
2013-05-17 12:42:00,72.1,63.8,30.08,SSE,157,0.0,0.0,75,0.00,,,0.01,VWS V14.01,2013-05-17 16:42:00,
2013-05-17 12:45:00,72.3,63.9,30.08,ENE,72,0.0,2.0,75,0.00,,CLR,0.01,VWS V14.01,2013-05-17 16:45:00,
2013-05-17 12:47:00,72.3,63.2,30.08,ENE,72,0.0,2.0,73,0.00,,,0.01,VWS V14.01,2013-05-17 16:47:00,
2013-05-17 12:52:00,72.7,63.5,30.08,ENE,73,0.0,0.0,73,0.00,,,0.01,VWS V14.01,2013-05-17 16:52:00,
2013-05-17 12:57:00,72.8,63.3,30.08,ENE,75,0.0,0.0,72,0.00,,,0.01,VWS V14.01,2013-05-17 16:57:00,
2013-05-17 13:00:00,73.2,64.4,30.07,ENE,76,0.0,0.0,74,0.00,,CLR,0.01,VWS V14.01,2013-05-17 17:00:00,
2013-05-17 13:02:00,73.3,64.1,30.07,ENE,76,0.0,0.0,73,0.00,,,0.01,VWS V14.01,2013-05-17 17:02:00,
2013-05-17 13:07:00,73.9,64.7,30.07,ENE,68,0.0,1.0,73,0.00,,,0.01,VWS V14.01,2013-05-17 17:07:00,
2013-05-17 13:12:00,74.6,64.2,30.07,WSW,246,0.0,4.0,70,0.00,,,0.01,VWS V14.01,2013-05-17 17:12:00,
2013-05-17 13:15:00,74.7,64.7,30.07,WSW,241,0.0,4.0,71,0.00,,CLR,0.01,VWS V14.01,2013-05-17 17:15:00,
2013-05-17 13:17:00,74.7,64.7,30.07,WSW,241,0.0,1.0,71,0.00,,,0.01,VWS V14.01,2013-05-17 17:17:00,
2013-05-17 13:22:00,75.1,65.5,30.07,ENE,69,0.0,2.0,72,0.00,,,0.01,VWS V14.01,2013-05-17 17:22:00,
2013-05-17 13:27:00,75.3,64.4,30.07,SSE,150,0.0,1.0,69,0.00,,,0.01,VWS V14.01,2013-05-17 17:27:00,
2013-05-17 13:30:00,75.6,65.5,30.06,South,182,0.0,0.0,71,0.00,,CLR,0.01,VWS V14.01,2013-05-17 17:30:00,
2013-05-17 13:32:00,75.6,65.1,30.06,East,90,0.0,0.0,70,0.00,,,0.01,VWS V14.01,2013-05-17 17:32:00,
2013-05-17 13:37:00,75.8,65.3,30.06,ENE,72,0.0,1.0,70,0.00,,,0.01,VWS V14.01,2013-05-17 17:37:00,
2013-05-17 13:42:00,75.8,64.1,30.06,South,169,0.0,0.0,67,0.00,,,0.01,VWS V14.01,2013-05-17 17:42:00,
2013-05-17 13:45:00,76.1,65.2,30.06,SSE,167,0.0,0.0,69,0.00,,CLR,0.01,VWS V14.01,2013-05-17 17:45:00,
2013-05-17 13:47:00,76.1,63.9,30.06,SSE,167,0.0,0.0,66,0.00,,,0.01,VWS V14.01,2013-05-17 17:47:00,
2013-05-17 13:52:00,76.1,64.4,30.06,South,171,0.0,1.0,67,0.00,,,0.01,VWS V14.01,2013-05-17 17:52:00,
2013-05-17 13:57:00,76.1,63.9,30.06,South,171,0.0,1.0,66,0.00,,,0.01,VWS V14.01,2013-05-17 17:57:00,
2013-05-17 14:00:00,76.5,65.2,30.06,SSE,147,0.0,0.0,68,0.00,,CLR,0.01,VWS V14.01,2013-05-17 18:00:00,
2013-05-17 14:02:00,76.7,64.9,30.06,SE,145,0.0,0.0,67,0.00,,SCT027,0.01,VWS V14.01,2013-05-17 18:02:00,
2013-05-17 14:07:00,77.0,64.3,30.06,SW,226,0.0,6.0,65,0.00,,SCT027,0.01,VWS V14.01,2013-05-17 18:07:00,
2013-05-17 14:12:00,76.8,64.6,30.06,SW,232,0.0,5.0,66,0.00,,SCT027,0.01,VWS V14.01,2013-05-17 18:12:00,
2013-05-17 14:15:00,77.2,64.5,30.05,SW,224,0.0,5.0,65,0.00,,CLR,0.01,VWS V14.01,2013-05-17 18:15:00,
2013-05-17 14:17:00,77.4,64.7,30.05,SW,229,0.0,0.0,65,0.00,,SCT027,0.01,VWS V14.01,2013-05-17 18:17:00,
2013-05-17 14:22:00,78.3,63.8,30.05,SW,216,0.0,1.0,61,0.00,,SCT027,0.01,VWS V14.01,2013-05-17 18:22:00,
2013-05-17 14:27:00,78.6,64.0,30.05,SSW,208,0.0,5.0,61,0.00,,SCT027,0.01,VWS V14.01,2013-05-17 18:27:00,
2013-05-17 14:30:00,79.0,63.5,30.04,SSW,208,0.0,5.0,59,0.00,,CLR,0.01,VWS V14.01,2013-05-17 18:30:00,
2013-05-17 14:32:00,79.0,63.0,30.04,SSW,208,0.0,5.0,58,0.00,,SCT027,0.01,VWS V14.01,2013-05-17 18:32:00,
2013-05-17 14:37:00,79.0,63.9,30.04,ESE,109,0.0,0.0,60,0.00,,SCT027,0.01,VWS V14.01,2013-05-17 18:37:00,
2013-05-17 14:42:00,79.4,62.9,30.04,SSW,203,0.0,3.0,57,0.00,,SCT027,0.01,VWS V14.01,2013-05-17 18:42:00,
2013-05-17 14:45:00,79.6,63.0,30.04,SSE,168,0.0,3.0,57,0.00,,CLR,0.01,VWS V14.01,2013-05-17 18:45:00,
2013-05-17 14:47:00,79.4,63.3,30.04,SSE,168,0.0,0.0,58,0.00,,SCT027,0.01,VWS V14.01,2013-05-17 18:47:00,
2013-05-17 14:52:00,79.6,64.5,30.04,South,169,0.0,0.0,60,0.00,,SCT027,0.01,VWS V14.01,2013-05-17 18:52:00,
2013-05-17 14:57:00,79.9,63.8,30.04,ENE,76,0.0,3.0,58,0.00,,SCT027,0.01,VWS V14.01,2013-05-17 18:57:00,
2013-05-17 15:00:00,79.8,64.2,30.04,ENE,75,0.0,3.0,59,0.00,,CLR,0.01,VWS V14.01,2013-05-17 19:00:00,
2013-05-17 15:02:00,79.9,62.8,30.04,NE,52,0.0,3.0,56,0.00,,FEW036,0.01,VWS V14.01,2013-05-17 19:02:00,
2013-05-17 15:07:00,80.5,63.9,30.04,NE,54,0.0,0.0,57,0.00,,FEW036,0.01,VWS V14.01,2013-05-17 19:07:00,
2013-05-17 15:12:00,80.5,62.3,30.04,ENE,69,2.0,3.0,54,0.00,,FEW036,0.01,VWS V14.01,2013-05-17 19:12:00,
2013-05-17 15:15:00,80.5,62.3,30.03,ENE,64,2.0,3.0,54,0.00,,CLR,0.01,VWS V14.01,2013-05-17 19:15:00,
2013-05-17 15:17:00,80.3,61.1,30.03,ENE,65,0.0,3.0,52,0.00,,FEW036,0.01,VWS V14.01,2013-05-17 19:17:00,
2013-05-17 15:22:00,80.3,61.6,30.03,ENE,58,0.0,6.0,53,0.00,,FEW036,0.01,VWS V14.01,2013-05-17 19:22:00,
2013-05-17 15:27:00,80.1,62.5,30.03,East,86,2.0,3.0,55,0.00,,FEW036,0.01,VWS V14.01,2013-05-17 19:27:00,
2013-05-17 15:30:00,80.1,64.0,30.03,ENE,61,0.0,5.0,58,0.00,,CLR,0.01,VWS V14.01,2013-05-17 19:30:00,
2013-05-17 15:32:00,80.1,63.0,30.03,ENE,61,0.0,5.0,56,0.00,,FEW036,0.01,VWS V14.01,2013-05-17 19:32:00,
2013-05-17 15:37:00,80.1,63.0,30.03,ENE,61,0.0,1.0,56,0.00,,FEW036,0.01,VWS V14.01,2013-05-17 19:37:00,
2013-05-17 15:42:00,80.1,64.0,30.03,ENE,66,0.0,1.0,58,0.00,,FEW036,0.01,VWS V14.01,2013-05-17 19:42:00,
2013-05-17 15:45:00,80.1,62.5,30.03,ENE,66,0.0,1.0,55,0.00,,CLR,0.01,VWS V14.01,2013-05-17 19:45:00,
2013-05-17 15:47:00,80.3,61.6,30.03,ENE,59,0.0,3.0,53,0.00,,FEW036,0.01,VWS V14.01,2013-05-17 19:47:00,
2013-05-17 15:52:00,80.3,61.6,30.03,ENE,64,0.0,3.0,53,0.00,,FEW036,0.01,VWS V14.01,2013-05-17 19:52:00,
2013-05-17 15:57:00,79.8,61.7,30.03,ENE,64,0.0,1.0,54,0.00,,FEW036,0.01,VWS V14.01,2013-05-17 19:57:00,
2013-05-17 16:00:00,79.2,61.1,30.03,ENE,69,0.0,2.0,54,0.00,,CLR,0.01,VWS V14.01,2013-05-17 20:00:00,
2013-05-17 16:02:00,79.0,61.5,30.03,ENE,69,0.0,2.0,55,0.00,,CLR,0.01,VWS V14.01,2013-05-17 20:02:00,
2013-05-17 16:07:00,78.8,61.8,30.03,ENE,69,0.0,0.0,56,0.00,,CLR,0.01,VWS V14.01,2013-05-17 20:07:00,
2013-05-17 16:12:00,79.0,63.0,30.03,ENE,69,0.0,0.0,58,0.00,,CLR,0.01,VWS V14.01,2013-05-17 20:12:00,
2013-05-17 16:15:00,79.0,62.0,30.02,ENE,62,0.0,5.0,56,0.00,,CLR,0.01,VWS V14.01,2013-05-17 20:15:00,
2013-05-17 16:17:00,79.0,62.5,30.02,ENE,62,0.0,5.0,57,0.00,,CLR,0.01,VWS V14.01,2013-05-17 20:17:00,
2013-05-17 16:22:00,79.0,62.5,30.02,ENE,76,0.0,3.0,57,0.00,,CLR,0.01,VWS V14.01,2013-05-17 20:22:00,
2013-05-17 16:27:00,79.0,62.5,30.02,ENE,78,1.0,3.0,57,0.00,,CLR,0.01,VWS V14.01,2013-05-17 20:27:00,
2013-05-17 16:30:00,79.0,63.0,30.02,ENE,78,1.0,3.0,58,0.00,,CLR,0.01,VWS V14.01,2013-05-17 20:30:00,
2013-05-17 16:32:00,79.2,63.2,30.02,ENE,71,0.0,2.0,58,0.00,,CLR,0.01,VWS V14.01,2013-05-17 20:32:00,
2013-05-17 16:37:00,79.2,63.2,30.02,ENE,72,0.0,2.0,58,0.00,,CLR,0.01,VWS V14.01,2013-05-17 20:37:00,
2013-05-17 16:42:00,79.4,62.3,30.02,ENE,62,0.0,5.0,56,0.00,,CLR,0.01,VWS V14.01,2013-05-17 20:42:00,
2013-05-17 16:45:00,79.6,63.0,30.01,ENE,62,0.0,5.0,57,0.00,,CLR,0.01,VWS V14.01,2013-05-17 20:45:00,
2013-05-17 16:47:00,79.9,64.3,30.01,NE,41,0.0,5.0,59,0.00,,CLR,0.01,VWS V14.01,2013-05-17 20:47:00,
2013-05-17 16:52:00,80.7,63.6,30.01,NE,44,0.0,1.0,56,0.00,,CLR,0.01,VWS V14.01,2013-05-17 20:52:00,
2013-05-17 16:57:00,80.5,63.9,30.01,East,90,0.0,1.0,57,0.00,,CLR,0.01,VWS V14.01,2013-05-17 20:57:00,
2013-05-17 17:00:00,80.5,64.4,30.01,East,79,0.0,3.0,58,0.00,,CLR,0.01,VWS V14.01,2013-05-17 21:00:00,
2013-05-17 17:02:00,80.5,64.4,30.01,North,0,2.0,3.0,58,0.00,,CLR,0.01,VWS V14.01,2013-05-17 21:02:00,
2013-05-17 17:07:00,81.2,63.5,30.01,NE,35,0.0,2.0,55,0.00,,CLR,0.01,VWS V14.01,2013-05-17 21:07:00,
2013-05-17 17:12:00,81.1,61.8,30.01,NE,35,0.0,2.0,52,0.00,,CLR,0.01,VWS V14.01,2013-05-17 21:12:00,
2013-05-17 17:15:00,81.1,61.8,30.01,NE,35,0.0,0.0,52,0.00,,CLR,0.01,VWS V14.01,2013-05-17 21:15:00,
2013-05-17 17:17:00,80.9,62.2,30.01,NE,35,0.0,0.0,53,0.00,,CLR,0.01,VWS V14.01,2013-05-17 21:17:00,
2013-05-17 17:22:00,80.3,63.2,30.01,South,169,0.0,0.0,56,0.00,,CLR,0.01,VWS V14.01,2013-05-17 21:22:00,
2013-05-17 17:27:00,80.3,62.7,30.01,South,171,0.0,0.0,55,0.00,,CLR,0.01,VWS V14.01,2013-05-17 21:27:00,
2013-05-17 17:30:00,80.1,62.5,30.01,South,171,0.0,0.0,55,0.00,,OVC090,0.01,VWS V14.01,2013-05-17 21:30:00,
2013-05-17 17:32:00,80.3,62.2,30.01,South,171,0.0,1.0,54,0.00,,CLR,0.01,VWS V14.01,2013-05-17 21:32:00,
2013-05-17 17:37:00,80.1,60.4,30.01,SW,219,0.0,7.0,51,0.00,,CLR,0.01,VWS V14.01,2013-05-17 21:37:00,
2013-05-17 17:42:00,80.3,61.1,30.01,East,83,0.0,7.0,52,0.00,,CLR,0.01,VWS V14.01,2013-05-17 21:42:00,
2013-05-17 17:45:00,80.1,60.9,30.01,East,90,0.0,6.0,52,0.00,,OVC090,0.01,VWS V14.01,2013-05-17 21:45:00,
2013-05-17 17:47:00,79.9,61.8,30.01,East,85,0.0,0.0,54,0.00,,CLR,0.01,VWS V14.01,2013-05-17 21:47:00,
2013-05-17 17:52:00,79.8,60.6,30.01,ENE,73,0.0,1.0,52,0.00,,CLR,0.01,VWS V14.01,2013-05-17 21:52:00,
2013-05-17 17:57:00,79.6,61.0,30.01,ENE,73,0.0,1.0,53,0.00,,CLR,0.01,VWS V14.01,2013-05-17 21:57:00,
2013-05-17 18:00:00,79.8,62.2,30.01,ENE,72,0.0,1.0,55,0.00,,OVC090,0.01,VWS V14.01,2013-05-17 22:00:00,
2013-05-17 18:02:00,80.1,61.4,30.01,ENE,73,0.0,1.0,53,0.00,,SCT047,0.01,VWS V14.01,2013-05-17 22:02:00,
2013-05-17 18:07:00,79.9,59.6,30.01,SSE,158,0.0,0.0,50,0.00,,SCT047,0.01,VWS V14.01,2013-05-17 22:07:00,
2013-05-17 18:12:00,79.6,62.0,30.01,South,169,0.0,1.0,55,0.00,,SCT047,0.01,VWS V14.01,2013-05-17 22:12:00,
2013-05-17 18:15:00,79.4,61.3,30.01,SSE,151,0.0,1.0,54,0.00,,OVC090,0.01,VWS V14.01,2013-05-17 22:15:00,
2013-05-17 18:17:00,79.2,61.1,30.01,SSE,151,0.0,1.0,54,0.00,,SCT047,0.01,VWS V14.01,2013-05-17 22:17:00,
2013-05-17 18:22:00,78.6,60.6,30.01,SSE,151,0.0,0.0,54,0.00,,SCT047,0.01,VWS V14.01,2013-05-17 22:22:00,
2013-05-17 18:27:00,78.3,60.3,30.01,South,191,0.0,2.0,54,0.00,,SCT047,0.01,VWS V14.01,2013-05-17 22:27:00,
2013-05-17 18:30:00,78.1,61.1,30.01,South,189,0.0,2.0,56,0.00,,OVC090,0.01,VWS V14.01,2013-05-17 22:30:00,
2013-05-17 18:32:00,78.1,60.6,30.01,South,189,0.0,2.0,55,0.00,,SCT047,0.01,VWS V14.01,2013-05-17 22:32:00,
2013-05-17 18:37:00,77.7,59.8,30.01,South,189,0.0,0.0,54,0.00,,SCT047,0.01,VWS V14.01,2013-05-17 22:37:00,
2013-05-17 18:42:00,77.9,59.9,30.01,East,97,0.0,0.0,54,0.00,,SCT047,0.01,VWS V14.01,2013-05-17 22:42:00,
2013-05-17 18:45:00,77.9,59.4,30.01,East,92,0.0,0.0,53,0.00,,OVC090,0.01,VWS V14.01,2013-05-17 22:45:00,
2013-05-17 18:47:00,77.9,58.9,30.01,East,92,0.0,0.0,52,0.00,,SCT047,0.01,VWS V14.01,2013-05-17 22:47:00,
2013-05-17 18:52:00,77.7,58.7,30.01,East,92,0.0,0.0,52,0.00,,SCT047,0.01,VWS V14.01,2013-05-17 22:52:00,
2013-05-17 18:57:00,77.6,58.6,30.01,East,92,0.0,0.0,52,0.00,,SCT047,0.01,VWS V14.01,2013-05-17 22:57:00,
2013-05-17 19:00:00,77.4,57.9,30.02,NE,49,0.0,1.0,51,0.00,,OVC090,0.01,VWS V14.01,2013-05-17 23:00:00,
2013-05-17 19:02:00,77.4,57.9,30.02,NE,49,0.0,1.0,51,0.00,,CLR,0.01,VWS V14.01,2013-05-17 23:02:00,
2013-05-17 19:07:00,77.2,59.3,30.02,NE,49,0.0,0.0,54,0.00,,CLR,0.01,VWS V14.01,2013-05-17 23:07:00,
2013-05-17 19:12:00,77.0,59.1,30.02,NE,49,0.0,0.0,54,0.00,,CLR,0.01,VWS V14.01,2013-05-17 23:12:00,
2013-05-17 19:15:00,76.8,59.9,30.02,NE,49,0.0,0.0,56,0.00,,OVC090,0.01,VWS V14.01,2013-05-17 23:15:00,
2013-05-17 19:17:00,76.8,60.4,30.02,NE,49,0.0,0.0,57,0.00,,CLR,0.01,VWS V14.01,2013-05-17 23:17:00,
2013-05-17 19:22:00,76.5,59.7,30.02,SE,134,0.0,1.0,56,0.00,,CLR,0.01,VWS V14.01,2013-05-17 23:22:00,
2013-05-17 19:27:00,76.3,60.0,30.02,SE,136,0.0,1.0,57,0.00,,CLR,0.01,VWS V14.01,2013-05-17 23:27:00,
2013-05-17 19:30:00,76.1,59.8,30.03,SE,136,0.0,0.0,57,0.00,,OVC090,0.01,VWS V14.01,2013-05-17 23:30:00,
2013-05-17 19:32:00,76.0,60.2,30.03,SE,134,0.0,0.0,58,0.00,,CLR,0.01,VWS V14.01,2013-05-17 23:32:00,
2013-05-17 19:37:00,75.8,60.5,30.03,South,184,0.0,2.0,59,0.00,,CLR,0.01,VWS V14.01,2013-05-17 23:37:00,
2013-05-17 19:42:00,75.6,60.3,30.03,SSW,200,0.0,2.0,59,0.00,,CLR,0.01,VWS V14.01,2013-05-17 23:42:00,
2013-05-17 19:45:00,75.6,60.8,30.03,SSW,200,0.0,2.0,60,0.00,,OVC090,0.01,VWS V14.01,2013-05-17 23:45:00,
2013-05-17 19:47:00,75.6,61.2,30.03,SSW,200,0.0,2.0,61,0.00,,CLR,0.01,VWS V14.01,2013-05-17 23:47:00,
2013-05-17 19:52:00,75.4,61.5,30.03,SSW,200,0.0,0.0,62,0.00,,CLR,0.01,VWS V14.01,2013-05-17 23:52:00,
2013-05-17 19:57:00,75.4,61.5,30.03,SSW,200,0.0,0.0,62,0.00,,CLR,0.01,VWS V14.01,2013-05-17 23:57:00,
2013-05-17 20:00:00,75.3,61.8,30.04,SSW,200,0.0,0.0,63,0.00,,OVC090,0.01,VWS V14.01,2013-05-18 00:00:00,
2013-05-17 20:02:00,75.3,61.4,30.04,SSW,200,0.0,4.0,62,0.00,,BKN120,0.01,VWS V14.01,2013-05-18 00:02:00,
2013-05-17 20:07:00,75.1,61.7,30.04,SSW,200,0.0,4.0,63,0.00,,BKN120,0.01,VWS V14.01,2013-05-18 00:07:00,
2013-05-17 20:12:00,74.9,61.5,30.04,SSW,200,0.0,0.0,63,0.00,,BKN120,0.01,VWS V14.01,2013-05-18 00:12:00,
2013-05-17 20:15:00,74.7,61.7,30.03,SSW,200,0.0,0.0,64,0.00,,OVC090,0.01,VWS V14.01,2013-05-18 00:15:00,
2013-05-17 20:17:00,74.7,61.7,30.03,SSW,200,0.0,0.0,64,0.00,,BKN120,0.01,VWS V14.01,2013-05-18 00:17:00,
2013-05-17 20:22:00,74.4,61.4,30.03,SSW,200,0.0,0.0,64,0.00,,BKN120,0.01,VWS V14.01,2013-05-18 00:22:00,
2013-05-17 20:27:00,74.2,61.7,30.03,SSW,200,0.0,0.0,65,0.00,,BKN120,0.01,VWS V14.01,2013-05-18 00:27:00,
2013-05-17 20:30:00,74.0,61.9,30.04,SSW,200,0.0,0.0,66,0.00,,OVC090,0.01,VWS V14.01,2013-05-18 00:30:00,
2013-05-17 20:32:00,73.9,61.8,30.04,SSW,200,0.0,0.0,66,0.00,,BKN120,0.01,VWS V14.01,2013-05-18 00:32:00,
2013-05-17 20:37:00,73.3,62.1,30.04,SSW,200,0.0,0.0,68,0.00,,BKN120,0.01,VWS V14.01,2013-05-18 00:37:00,
2013-05-17 20:42:00,72.8,62.0,30.04,SSW,200,0.0,0.0,69,0.00,,BKN120,0.01,VWS V14.01,2013-05-18 00:42:00,
2013-05-17 20:45:00,72.5,61.8,30.05,SSW,200,0.0,0.0,69,0.00,,OVC090,0.01,VWS V14.01,2013-05-18 00:45:00,
2013-05-17 20:47:00,72.3,62.0,30.05,SSW,200,0.0,0.0,70,0.00,,BKN120,0.01,VWS V14.01,2013-05-18 00:47:00,
2013-05-17 20:52:00,72.0,62.1,30.05,SSW,200,0.0,0.0,71,0.00,,BKN120,0.01,VWS V14.01,2013-05-18 00:52:00,
2013-05-17 20:57:00,71.3,61.8,30.05,SSW,200,0.0,0.0,72,0.00,,BKN120,0.01,VWS V14.01,2013-05-18 00:57:00,
2013-05-17 21:00:00,71.1,62.0,30.05,SSW,200,0.0,0.0,73,0.00,,OVC090,0.01,VWS V14.01,2013-05-18 01:00:00,
2013-05-17 21:02:00,70.9,61.8,30.05,SSW,200,0.0,0.0,73,0.00,,SCT100,0.01,VWS V14.01,2013-05-18 01:02:00,
2013-05-17 21:07:00,70.4,61.7,30.05,SSW,200,0.0,0.0,74,0.00,,SCT100,0.01,VWS V14.01,2013-05-18 01:07:00,
2013-05-17 21:12:00,70.1,61.4,30.05,SSW,200,0.0,0.0,74,0.00,,SCT100,0.01,VWS V14.01,2013-05-18 01:12:00,
2013-05-17 21:15:00,69.9,61.6,30.06,SSW,200,0.0,0.0,75,0.00,,OVC090,0.01,VWS V14.01,2013-05-18 01:15:00,
2013-05-17 21:17:00,69.8,61.5,30.06,SSW,200,0.0,0.0,75,0.00,,SCT100,0.01,VWS V14.01,2013-05-18 01:17:00,
2013-05-17 21:22:00,69.4,61.1,30.06,SSW,200,0.0,0.0,75,0.00,,SCT100,0.01,VWS V14.01,2013-05-18 01:22:00,
2013-05-17 21:27:00,69.1,61.2,30.06,SSW,200,0.0,0.0,76,0.00,,SCT100,0.01,VWS V14.01,2013-05-18 01:27:00,
2013-05-17 21:30:00,68.9,61.4,30.07,SSW,200,0.0,0.0,77,0.00,,OVC090,0.01,VWS V14.01,2013-05-18 01:30:00,
2013-05-17 21:32:00,68.8,61.3,30.07,SSW,200,0.0,0.0,77,0.00,,SCT100,0.01,VWS V14.01,2013-05-18 01:32:00,
2013-05-17 21:37:00,68.6,61.1,30.07,SSW,200,0.0,0.0,77,0.00,,SCT100,0.01,VWS V14.01,2013-05-18 01:37:00,
2013-05-17 21:42:00,68.4,61.3,30.07,SW,215,2.0,8.0,78,0.00,,SCT100,0.01,VWS V14.01,2013-05-18 01:42:00,
2013-05-17 21:45:00,68.6,61.5,30.08,WSW,237,1.0,10.0,78,0.00,,OVC090,0.01,VWS V14.01,2013-05-18 01:45:00,
2013-05-17 21:47:00,68.6,61.1,30.08,WSW,256,0.0,10.0,77,0.00,,SCT100,0.01,VWS V14.01,2013-05-18 01:47:00,
2013-05-17 21:52:00,68.8,60.9,30.08,WSW,256,0.0,10.0,76,0.00,,SCT100,0.01,VWS V14.01,2013-05-18 01:52:00,
2013-05-17 21:57:00,68.8,60.2,30.08,SW,232,1.0,6.0,74,0.00,,SCT100,0.01,VWS V14.01,2013-05-18 01:57:00,
2013-05-17 22:00:00,68.8,60.2,30.08,SW,230,0.0,6.0,74,0.00,,OVC090,0.01,VWS V14.01,2013-05-18 02:00:00,
2013-05-17 22:02:00,68.6,59.6,30.08,WSW,248,0.0,6.0,73,0.00,,CLR,0.01,VWS V14.01,2013-05-18 02:02:00,
2013-05-17 22:07:00,68.4,59.4,30.08,WSW,248,0.0,3.0,73,0.00,,CLR,0.01,VWS V14.01,2013-05-18 02:07:00,
2013-05-17 22:12:00,68.4,59.4,30.08,WSW,248,0.0,0.0,73,0.00,,CLR,0.01,VWS V14.01,2013-05-18 02:12:00,
2013-05-17 22:15:00,68.3,59.3,30.07,WSW,248,0.0,0.0,73,0.00,,OVC090,0.01,VWS V14.01,2013-05-18 02:15:00,
2013-05-17 22:17:00,68.3,59.7,30.07,WSW,248,0.0,0.0,74,0.00,,CLR,0.01,VWS V14.01,2013-05-18 02:17:00,
2013-05-17 22:22:00,67.9,59.3,30.07,WSW,248,0.0,0.0,74,0.00,,CLR,0.01,VWS V14.01,2013-05-18 02:22:00,
2013-05-17 22:27:00,67.8,59.6,30.07,WSW,248,0.0,0.0,75,0.00,,CLR,0.01,VWS V14.01,2013-05-18 02:27:00,
2013-05-17 22:30:00,67.6,59.4,30.08,WSW,248,0.0,0.0,75,0.00,,OVC090,0.01,VWS V14.01,2013-05-18 02:30:00,
2013-05-17 22:32:00,67.4,59.2,30.08,WSW,248,0.0,0.0,75,0.00,,CLR,0.01,VWS V14.01,2013-05-18 02:32:00,
2013-05-17 22:37:00,67.3,59.1,30.08,WSW,248,0.0,0.0,75,0.00,,CLR,0.01,VWS V14.01,2013-05-18 02:37:00,
2013-05-17 22:42:00,67.1,58.9,30.08,WSW,257,0.0,2.0,75,0.00,,CLR,0.01,VWS V14.01,2013-05-18 02:42:00,
2013-05-17 22:45:00,66.9,58.7,30.08,West,263,0.0,2.0,75,0.00,,OVC090,0.01,VWS V14.01,2013-05-18 02:45:00,
2013-05-17 22:47:00,66.9,58.7,30.08,West,270,0.0,2.0,75,0.00,,CLR,0.01,VWS V14.01,2013-05-18 02:47:00,
2013-05-17 22:52:00,66.8,59.0,30.08,West,271,0.0,1.0,76,0.00,,CLR,0.01,VWS V14.01,2013-05-18 02:52:00,
2013-05-17 22:57:00,66.6,58.8,30.08,West,271,0.0,0.0,76,0.00,,CLR,0.01,VWS V14.01,2013-05-18 02:57:00,
2013-05-17 23:00:00,66.4,58.6,30.07,West,271,0.0,0.0,76,0.00,,OVC090,0.01,VWS V14.01,2013-05-18 03:00:00,
2013-05-17 23:02:00,66.4,58.6,30.07,West,271,0.0,0.0,76,0.00,,CLR,0.01,VWS V14.01,2013-05-18 03:02:00,
2013-05-17 23:07:00,66.3,58.9,30.07,West,271,0.0,0.0,77,0.00,,CLR,0.01,VWS V14.01,2013-05-18 03:07:00,
2013-05-17 23:12:00,66.0,59.0,30.07,West,271,0.0,0.0,78,0.00,,CLR,0.01,VWS V14.01,2013-05-18 03:12:00,
2013-05-17 23:15:00,65.8,58.8,30.07,West,271,0.0,0.0,78,0.00,,OVC090,0.01,VWS V14.01,2013-05-18 03:15:00,
2013-05-17 23:17:00,65.6,58.6,30.07,West,271,0.0,0.0,78,0.00,,CLR,0.01,VWS V14.01,2013-05-18 03:17:00,
2013-05-17 23:22:00,65.5,58.8,30.07,West,271,0.0,0.0,79,0.00,,CLR,0.01,VWS V14.01,2013-05-18 03:22:00,
2013-05-17 23:27:00,65.2,58.9,30.07,West,271,0.0,0.0,80,0.00,,CLR,0.01,VWS V14.01,2013-05-18 03:27:00,
2013-05-17 23:30:00,65.0,58.7,30.07,West,271,0.0,0.0,80,0.00,,OVC090,0.01,VWS V14.01,2013-05-18 03:30:00,
2013-05-17 23:32:00,64.8,58.8,30.07,West,271,0.0,0.0,81,0.00,,CLR,0.01,VWS V14.01,2013-05-18 03:32:00,
2013-05-17 23:37:00,64.7,58.7,30.07,West,271,0.0,0.0,81,0.00,,CLR,0.01,VWS V14.01,2013-05-18 03:37:00,
2013-05-17 23:42:00,64.3,58.3,30.07,West,271,0.0,0.0,81,0.00,,CLR,0.01,VWS V14.01,2013-05-18 03:42:00,
2013-05-17 23:45:00,64.2,58.6,30.07,West,271,0.0,0.0,82,0.00,,OVC090,0.01,VWS V14.01,2013-05-18 03:45:00,
2013-05-17 23:47:00,64.0,58.4,30.07,West,271,0.0,0.0,82,0.00,,CLR,0.01,VWS V14.01,2013-05-18 03:47:00,
2013-05-17 23:52:00,63.7,58.5,30.07,West,271,0.0,0.0,83,0.00,,CLR,0.01,VWS V14.01,2013-05-18 03:52:00,
2013-05-17 23:57:00,63.5,58.2,30.07,West,271,0.0,0.0,83,0.00,,CLR,0.01,VWS V14.01,2013-05-18 03:57:00,